| time (UTC) | temp F | wind direction | speed knots | gust knots | rain 1hr in | rain 24hr in | rain mn in | humidity % | barometer mb |
| 20260505170553 | 81 | 66 | 2.6 | 9.6 | 0.00 | 0.00 | 0.00 | 42 | 1011.1 |
| 20260505170039 | 81 | 33 | 3.5 | 9.6 | 0.00 | 0.00 | 0.00 | 43 | 1011.1 |
| 20260505165551 | 81 | 62 | 3.5 | 12.2 | 0.00 | 0.00 | 0.00 | 45 | 1011.2 |
| 20260505165025 | 81 | 34 | 5.2 | 13.9 | 0.00 | 0.00 | 0.00 | 44 | 1011.2 |
| 20260505164556 | 81 | 44 | 2.6 | 13.9 | 0.00 | 0.00 | 0.00 | 42 | 1011.4 |
| 20260505164038 | 81 | 25 | 6.1 | 13.0 | 0.00 | 0.00 | 0.00 | 43 | 1011.6 |
| 20260505163519 | 81 | 41 | 0.9 | 11.3 | 0.00 | 0.00 | 0.00 | 46 | 1011.6 |
| 20260505163057 | 81 | 46 | 1.7 | 11.3 | 0.00 | 0.00 | 0.00 | 46 | 1011.7 |
| 20260505162539 | 81 | 96 | 0.0 | 13.0 | 0.00 | 0.00 | 0.00 | 44 | 1011.6 |
| 20260505162011 | 80 | 54 | 1.7 | 11.3 | 0.00 | 0.00 | 0.00 | 46 | 1011.7 |
| 20260505161529 | 80 | 65 | 4.3 | 11.3 | 0.00 | 0.00 | 0.00 | 45 | 1011.7 |
| 20260505161013 | 81 | 113 | 1.7 | 5.2 | 0.00 | 0.00 | 0.00 | 45 | 1011.7 |
| 20260505160551 | 80 | 58 | 0.9 | 8.7 | 0.00 | 0.00 | 0.00 | 45 | 1011.7 |
| 20260505153015 | 78 | 56 | 3.5 | 11.3 | 0.00 | 0.00 | 0.00 | 46 | 1012.0 |
| 20260505152551 | 78 | 13 | 5.2 | 11.3 | 0.00 | 0.00 | 0.00 | 47 | 1012.0 |
| 20260505152033 | 78 | 59 | 2.6 | 9.6 | 0.00 | 0.00 | 0.00 | 47 | 1011.9 |
| 20260505151600 | 78 | 43 | 2.6 | 11.3 | 0.00 | 0.00 | 0.00 | 48 | 1011.9 |
| 20260505151507 | 78 | 53 | 2.6 | 11.3 | 0.00 | 0.00 | 0.00 | 48 | 1012.0 |
| 20260505151042 | 77 | 45 | 3.5 | 11.3 | 0.00 | 0.00 | 0.00 | 49 | 1012.0 |
| 20260505150529 | 77 | 33 | 1.7 | 8.7 | 0.00 | 0.00 | 0.00 | 49 | 1012.1 |
| 20260505140504 | 71 | 51 | 3.5 | 7.0 | 0.00 | 0.00 | 0.00 | 55 | 1012.7 |
| 20260505124512 | 67 | 66 | 0.9 | 8.7 | 0.00 | 0.00 | 0.00 | 62 | 1013.1 |
| 20260505124046 | 66 | 40 | 0.9 | 7.0 | 0.00 | 0.00 | 0.00 | 63 | 1013.0 |
| 20260505123511 | 66 | 66 | 2.6 | 8.7 | 0.00 | 0.00 | 0.00 | 63 | 1013.0 |
| 20260505123044 | 66 | 44 | 0.0 | 8.7 | 0.00 | 0.00 | 0.00 | 64 | 1013.0 |
| 20260505122526 | 66 | 76 | 1.7 | 6.1 | 0.00 | 0.00 | 0.00 | 63 | 1013.0 |
| 20260505122007 | 65 | 54 | 0.0 | 9.6 | 0.00 | 0.00 | 0.00 | 65 | 1012.8 |
| 20260505121548 | 65 | 48 | 2.6 | 9.6 | 0.00 | 0.00 | 0.00 | 65 | 1012.7 |
| 20260505121023 | 65 | 27 | 0.0 | 5.2 | 0.00 | 0.00 | 0.00 | 66 | 1012.8 |
| 20260505120600 | 65 | 34 | 0.0 | 5.2 | 0.00 | 0.00 | 0.00 | 65 | 1012.7 |
| 20260505120021 | 64 | 63 | 0.9 | 5.2 | 0.00 | 0.00 | 0.00 | 67 | 1012.7 |
| 20260505115555 | 64 | 48 | 0.9 | 6.1 | 0.00 | 0.00 | 0.00 | 67 | 1012.6 |
| 20260505115036 | 64 | 53 | 0.0 | 6.1 | 0.00 | 0.00 | 0.00 | 67 | 1012.7 |
| 20260505114601 | 64 | 69 | 0.0 | 6.1 | 0.00 | 0.00 | 0.00 | 68 | 1012.6 |
| 20260505114502 | 64 | 66 | 0.9 | 6.1 | 0.00 | 0.00 | 0.00 | 67 | 1012.6 |
| 20260505114043 | 64 | 58 | 0.0 | 4.3 | 0.00 | 0.00 | 0.00 | 69 | 1012.5 |
| 20260505113519 | 63 | 57 | 0.9 | 4.3 | 0.00 | 0.00 | 0.00 | 69 | 1012.6 |
| 20260505113103 | 63 | 54 | 0.0 | 0.9 | 0.00 | 0.00 | 0.00 | 70 | 1012.6 |
| 20260505112535 | 63 | 53 | 0.0 | 0.9 | 0.00 | 0.00 | 0.00 | 71 | 1012.6 |
| 20260505112019 | 62 | 46 | 0.0 | 0.9 | 0.00 | 0.00 | 0.00 | 74 | 1012.5 |
| 20260505111554 | 61 | 47 | 0.0 | 0.9 | 0.00 | 0.00 | 0.00 | 74 | 1012.5 |
| 20260505111032 | 60 | 47 | 0.0 | 0.9 | 0.00 | 0.00 | 0.00 | 77 | 1012.4 |
| 20260505110511 | 60 | 47 | 0.0 | 0.9 | 0.00 | 0.00 | 0.00 | 77 | 1012.2 |
| 20260505102016 | 53 | 47 | 0.0 | 0.0 | 0.00 | 0.00 | 0.00 | 84 | 1012.1 |
| 20260505101556 | 53 | 46 | 0.0 | 0.0 | 0.00 | 0.00 | 0.00 | 84 | 1012.1 |
| 20260505101032 | 53 | 46 | 0.0 | 0.0 | 0.00 | 0.00 | 0.00 | 84 | 1012.0 |
| 20260505100514 | 54 | 46 | 0.0 | 0.0 | 0.00 | 0.00 | 0.00 | 83 | 1011.9 |
| 20260505100044 | 54 | 46 | 0.0 | 0.0 | 0.00 | 0.00 | 0.00 | 82 | 1011.9 |
| 20260505095524 | 54 | 46 | 0.0 | 0.0 | 0.00 | 0.00 | 0.00 | 81 | 1012.0 |
| 20260505095048 | 55 | 46 | 0.0 | 0.0 | 0.00 | 0.00 | 0.00 | 81 | 1011.8 |
| 20260505094510 | 55 | 46 | 0.0 | 0.9 | 0.00 | 0.00 | 0.00 | 80 | 1011.7 |
| 20260505094040 | 55 | 46 | 0.0 | 0.9 | 0.00 | 0.00 | 0.00 | 80 | 1011.7 |
| 20260505093520 | 56 | 46 | 0.0 | 0.0 | 0.00 | 0.00 | 0.00 | 78 | 1011.7 |
| 20260505093051 | 56 | 47 | 0.0 | 0.0 | 0.00 | 0.00 | 0.00 | 77 | 1011.8 |
| 20260505092557 | 57 | 46 | 0.0 | 1.7 | 0.00 | 0.00 | 0.00 | 77 | 1011.8 |
| 20260505092506 | 57 | 46 | 0.0 | 1.7 | 0.00 | 0.00 | 0.00 | 77 | 1011.9 |
| 20260505092035 | 56 | 46 | 0.0 | 1.7 | 0.00 | 0.00 | 0.00 | 78 | 1011.8 |
| 20260505091514 | 56 | 68 | 0.0 | 0.9 | 0.00 | 0.00 | 0.00 | 79 | 1011.8 |
| 20260505091038 | 56 | 68 | 0.0 | 0.9 | 0.00 | 0.00 | 0.00 | 79 | 1011.9 |
| 20260505090515 | 56 | 68 | 0.0 | 0.0 | 0.00 | 0.00 | 0.00 | 78 | 1011.7 |
| 20260505090036 | 56 | 68 | 0.0 | 0.0 | 0.00 | 0.00 | 0.00 | 78 | 1011.7 |
| 20260505085553 | 56 | 68 | 0.0 | 0.0 | 0.00 | 0.00 | 0.00 | 77 | 1011.5 |
| 20260505085033 | 56 | 68 | 0.0 | 0.0 | 0.00 | 0.00 | 0.00 | 77 | 1011.4 |
| 20260505084605 | 57 | 68 | 0.0 | 0.0 | 0.00 | 0.00 | 0.00 | 76 | 1011.4 |
| 20260505084019 | 57 | 68 | 0.0 | 0.0 | 0.00 | 0.00 | 0.00 | 76 | 1011.5 |
| 20260505083542 | 57 | 68 | 0.0 | 0.0 | 0.00 | 0.00 | 0.00 | 77 | 1011.5 |
| 20260505083016 | 56 | 68 | 0.0 | 0.0 | 0.00 | 0.00 | 0.00 | 77 | 1011.6 |
| 20260505082536 | 57 | 68 | 0.0 | 0.0 | 0.00 | 0.00 | 0.00 | 77 | 1011.7 |
| 20260505082014 | 57 | 68 | 0.0 | 0.0 | 0.00 | 0.00 | 0.00 | 76 | 1011.7 |
| 20260505081546 | 57 | 68 | 0.0 | 0.0 | 0.00 | 0.00 | 0.00 | 76 | 1011.6 |
| 20260505081024 | 57 | 68 | 0.0 | 0.0 | 0.00 | 0.00 | 0.00 | 75 | 1011.6 |
| 20260505080554 | 58 | 68 | 0.0 | 0.0 | 0.00 | 0.00 | 0.00 | 75 | 1011.6 |
| 20260505080035 | 58 | 68 | 0.0 | 0.0 | 0.00 | 0.00 | 0.00 | 74 | 1011.6 |
| 20260505075550 | 58 | 68 | 0.0 | 0.0 | 0.00 | 0.00 | 0.00 | 74 | 1011.8 |
| 20260505075024 | 58 | 68 | 0.0 | 0.9 | 0.00 | 0.00 | 0.00 | 73 | 1011.7 |
| 20260505074600 | 59 | 68 | 0.0 | 0.9 | 0.00 | 0.00 | 0.00 | 73 | 1011.8 |
| 20260505074502 | 59 | 68 | 0.0 | 0.9 | 0.00 | 0.00 | 0.00 | 73 | 1011.7 |
| 20260505074024 | 58 | 68 | 0.0 | 0.0 | 0.00 | 0.00 | 0.00 | 73 | 1011.7 |
| 20260505073552 | 58 | 67 | 0.0 | 0.0 | 0.00 | 0.00 | 0.00 | 73 | 1011.6 |
| 20260505073034 | 59 | 67 | 0.0 | 0.0 | 0.00 | 0.00 | 0.00 | 73 | 1011.6 |
| 20260505072557 | 59 | 67 | 0.0 | 0.0 | 0.00 | 0.00 | 0.00 | 73 | 1011.7 |
| 20260505072027 | 59 | 67 | 0.0 | 0.0 | 0.00 | 0.00 | 0.00 | 73 | 1011.7 |
| 20260505071600 | 60 | 67 | 0.0 | 0.0 | 0.00 | 0.00 | 0.00 | 71 | 1011.7 |
| 20260505071039 | 60 | 67 | 0.0 | 0.0 | 0.00 | 0.00 | 0.00 | 70 | 1011.6 |
| 20260505070514 | 60 | 67 | 0.0 | 0.0 | 0.00 | 0.00 | 0.00 | 68 | 1011.7 |
| 20260505065536 | 61 | 68 | 0.0 | 1.7 | 0.00 | 0.00 | 0.00 | 68 | 1011.7 |
| 20260505065013 | 61 | 67 | 0.0 | 1.7 | 0.00 | 0.00 | 0.00 | 68 | 1011.7 |
| 20260505064555 | 60 | 62 | 0.0 | 0.9 | 0.00 | 0.00 | 0.00 | 68 | 1011.7 |
| 20260505064026 | 61 | 62 | 0.0 | 0.9 | 0.00 | 0.00 | 0.00 | 67 | 1011.7 |
| 20260505063556 | 61 | 62 | 0.0 | 0.9 | 0.00 | 0.00 | 0.00 | 67 | 1011.7 |
| 20260505063502 | 61 | 62 | 0.0 | 0.9 | 0.00 | 0.00 | 0.00 | 67 | 1011.7 |
| 20260505063034 | 61 | 61 | 0.0 | 0.9 | 0.00 | 0.00 | 0.00 | 67 | 1011.8 |
| 20260505062512 | 60 | 63 | 0.0 | 1.7 | 0.00 | 0.00 | 0.00 | 67 | 1011.8 |
| 20260505062052 | 60 | 62 | 0.0 | 3.5 | 0.00 | 0.00 | 0.00 | 67 | 1011.8 |
| 20260505061522 | 60 | 51 | 0.0 | 2.6 | 0.00 | 0.00 | 0.00 | 66 | 1011.7 |
| 20260505061042 | 60 | 79 | 0.0 | 1.7 | 0.00 | 0.00 | 0.00 | 67 | 1011.6 |
| 20260505060519 | 60 | 65 | 0.0 | 2.6 | 0.00 | 0.00 | 0.00 | 67 | 1011.7 |
| 20260505060045 | 60 | 53 | 0.0 | 3.5 | 0.00 | 0.00 | 0.00 | 67 | 1011.7 |
| 20260505055514 | 60 | 84 | 0.0 | 0.9 | 0.00 | 0.00 | 0.00 | 67 | 1011.6 |
| 20260505055046 | 60 | 75 | 0.0 | 0.9 | 0.00 | 0.00 | 0.00 | 66 | 1011.7 |
| 20260505054537 | 60 | 74 | 0.0 | 0.9 | 0.00 | 0.00 | 0.00 | 65 | 1011.7 |
| 20260505054050 | 60 | 74 | 0.0 | 1.7 | 0.00 | 0.00 | 0.00 | 65 | 1011.6 |
| 20260505053530 | 61 | 74 | 0.0 | 1.7 | 0.00 | 0.00 | 0.00 | 64 | 1011.6 |
| 20260505053058 | 61 | 63 | 0.0 | 1.7 | 0.00 | 0.00 | 0.00 | 64 | 1011.7 |
| 20260505052537 | 61 | 64 | 0.0 | 0.9 | 0.00 | 0.00 | 0.00 | 63 | 1011.7 |
| 20260505052025 | 61 | 59 | 0.0 | 1.7 | 0.00 | 0.00 | 0.00 | 63 | 1011.7 |
| 20260505051600 | 61 | 59 | 0.0 | 1.7 | 0.00 | 0.00 | 0.00 | 63 | 1011.8 |
| 20260505051502 | 61 | 59 | 0.0 | 1.7 | 0.00 | 0.00 | 0.00 | 63 | 1011.6 |
| 20260505051034 | 61 | 81 | 0.0 | 1.7 | 0.00 | 0.00 | 0.00 | 63 | 1011.7 |
| 20260505050514 | 61 | 70 | 0.0 | 0.9 | 0.00 | 0.00 | 0.00 | 63 | 1011.8 |
| 20260505041508 | 61 | 24 | 0.0 | 1.7 | 0.00 | 0.00 | 0.00 | 60 | 1011.7 |
| 20260505041034 | 62 | 76 | 0.0 | 0.9 | 0.00 | 0.00 | 0.00 | 60 | 1011.6 |
| 20260505040508 | 62 | 66 | 0.0 | 0.9 | 0.00 | 0.00 | 0.00 | 59 | 1011.6 |
| 20260505040059 | 62 | 67 | 0.0 | 0.9 | 0.00 | 0.00 | 0.00 | 59 | 1011.4 |
| 20260505035531 | 62 | 66 | 0.0 | 4.3 | 0.00 | 0.00 | 0.00 | 58 | 1011.4 |
| 20260505035006 | 62 | 71 | 0.0 | 4.3 | 0.00 | 0.00 | 0.00 | 58 | 1011.4 |
| 20260505034534 | 62 | 120 | 0.0 | 2.6 | 0.00 | 0.00 | 0.00 | 57 | 1011.4 |
| 20260505034044 | 62 | 75 | 0.0 | 1.7 | 0.00 | 0.00 | 0.00 | 57 | 1011.4 |
| 20260505033526 | 62 | 82 | 0.0 | 1.7 | 0.00 | 0.00 | 0.00 | 57 | 1011.4 |
| 20260505033101 | 62 | 117 | 0.0 | 0.9 | 0.00 | 0.00 | 0.00 | 57 | 1011.4 |
| 20260505032534 | 62 | 117 | 0.0 | 0.9 | 0.00 | 0.00 | 0.00 | 57 | 1011.5 |
| 20260505032015 | 62 | 121 | 0.0 | 1.7 | 0.00 | 0.00 | 0.00 | 57 | 1011.4 |
| 20260505031546 | 62 | 68 | 0.0 | 1.7 | 0.00 | 0.00 | 0.00 | 57 | 1011.5 |
| 20260505031054 | 62 | 39 | 0.0 | 1.7 | 0.00 | 0.00 | 0.00 | 57 | 1011.5 |
| 20260505030536 | 61 | 49 | 0.0 | 0.0 | 0.00 | 0.00 | 0.00 | 57 | 1011.4 |
| 20260505030019 | 62 | 49 | 0.0 | 0.9 | 0.00 | 0.00 | 0.00 | 57 | 1011.4 |
| 20260505025554 | 62 | 49 | 0.0 | 0.9 | 0.00 | 0.00 | 0.00 | 57 | 1011.4 |
| 20260505025038 | 62 | 49 | 0.0 | 0.9 | 0.00 | 0.00 | 0.00 | 57 | 1011.4 |
| 20260505024513 | 62 | 54 | 0.0 | 0.9 | 0.00 | 0.00 | 0.00 | 57 | 1011.4 |
| 20260505024049 | 62 | 53 | 0.0 | 0.9 | 0.00 | 0.00 | 0.00 | 57 | 1011.6 |
| 20260505023531 | 62 | 53 | 0.0 | 0.9 | 0.00 | 0.00 | 0.00 | 56 | 1011.7 |
| 20260505023012 | 62 | 54 | 0.0 | 0.9 | 0.00 | 0.00 | 0.00 | 56 | 1011.6 |
| 20260505022550 | 62 | 54 | 0.0 | 0.9 | 0.00 | 0.00 | 0.00 | 56 | 1011.7 |
| 20260505022032 | 62 | 54 | 0.0 | 0.9 | 0.00 | 0.00 | 0.00 | 56 | 1011.7 |
| 20260505021516 | 62 | 54 | 0.0 | 0.9 | 0.00 | 0.00 | 0.00 | 56 | 1011.8 |
| 20260505021044 | 62 | 65 | 0.0 | 0.0 | 0.00 | 0.00 | 0.00 | 56 | 1011.8 |
| 20260505020524 | 62 | 65 | 0.0 | 0.0 | 0.00 | 0.00 | 0.00 | 57 | 1011.7 |
| 20260505020100 | 62 | 65 | 0.0 | 0.0 | 0.00 | 0.00 | 0.00 | 56 | 1011.8 |
| 20260505020005 | 62 | 65 | 0.0 | 0.0 | 0.00 | 0.00 | 0.00 | 56 | 1011.7 |
| 20260505015538 | 62 | 65 | 0.0 | 0.9 | 0.00 | 0.00 | 0.00 | 56 | 1011.8 |
| 20260505015019 | 62 | 65 | 0.0 | 0.9 | 0.00 | 0.00 | 0.00 | 56 | 1011.7 |
| 20260505014554 | 62 | 65 | 0.0 | 0.0 | 0.00 | 0.00 | 0.00 | 56 | 1011.8 |
| 20260505014037 | 61 | 65 | 0.0 | 0.0 | 0.00 | 0.00 | 0.00 | 57 | 1011.7 |
| 20260505013521 | 61 | 65 | 0.0 | 0.0 | 0.00 | 0.00 | 0.00 | 57 | 1011.8 |
| 20260505013007 | 61 | 57 | 0.0 | 0.0 | 0.00 | 0.00 | 0.00 | 58 | 1011.8 |
| 20260505012547 | 61 | 57 | 0.0 | 0.0 | 0.00 | 0.00 | 0.00 | 58 | 1011.7 |
| 20260505012006 | 61 | 57 | 0.0 | 0.0 | 0.00 | 0.00 | 0.00 | 58 | 1011.7 |
| 20260505011545 | 61 | 57 | 0.0 | 0.0 | 0.00 | 0.00 | 0.00 | 57 | 1011.7 |
| 20260505011024 | 61 | 57 | 0.0 | 0.0 | 0.00 | 0.00 | 0.00 | 58 | 1011.5 |
| 20260505010557 | 61 | 57 | 0.0 | 0.0 | 0.00 | 0.00 | 0.00 | 57 | 1011.4 |
| 20260505010504 | 62 | 57 | 0.0 | 0.0 | 0.00 | 0.00 | 0.00 | 56 | 1011.4 |
| 20260505010057 | 62 | 57 | 0.0 | 0.0 | 0.00 | 0.00 | 0.00 | 55 | 1011.3 |
| 20260505005524 | 62 | 57 | 0.0 | 0.0 | 0.00 | 0.00 | 0.00 | 54 | 1011.2 |
| 20260505005104 | 63 | 57 | 0.0 | 0.0 | 0.00 | 0.00 | 0.00 | 53 | 1011.1 |
| 20260505005002 | 63 | 57 | 0.0 | 0.0 | 0.00 | 0.00 | 0.00 | 53 | 1011.2 |
| 20260505004538 | 63 | 57 | 0.0 | 0.0 | 0.00 | 0.00 | 0.00 | 52 | 1011.1 |
| 20260505004015 | 64 | 57 | 0.0 | 0.0 | 0.00 | 0.00 | 0.00 | 51 | 1011.2 |
| 20260505003535 | 64 | 57 | 0.0 | 0.0 | 0.00 | 0.00 | 0.00 | 51 | 1011.2 |
| 20260505003054 | 64 | 57 | 0.0 | 0.0 | 0.00 | 0.00 | 0.00 | 51 | 1011.1 |
| 20260505002535 | 64 | 57 | 0.0 | 0.0 | 0.00 | 0.00 | 0.00 | 50 | 1011.1 |
| 20260505002020 | 65 | 57 | 0.0 | 0.0 | 0.00 | 0.00 | 0.00 | 50 | 1011.3 |
| 20260505001556 | 65 | 57 | 0.0 | 0.0 | 0.00 | 0.00 | 0.00 | 49 | 1011.2 |
| 20260505001033 | 66 | 57 | 0.0 | 0.0 | 0.00 | 0.00 | 0.00 | 48 | 1011.0 |
| 20260505000509 | 66 | 57 | 0.0 | 0.9 | 0.00 | 0.00 | 0.00 | 48 | 1011.0 |
| 20260505000046 | 67 | 57 | 0.0 | 0.9 | 0.00 | 0.00 | 0.00 | 47 | 1010.8 |
| 20260504235510 | 67 | 57 | 0.0 | 0.9 | 0.00 | 0.00 | 0.00 | 47 | 1010.9 |
| 20260504235050 | 68 | 57 | 0.0 | 1.7 | 0.00 | 0.00 | 0.00 | 46 | 1010.9 |
| 20260504234526 | 68 | 57 | 0.0 | 4.3 | 0.00 | 0.00 | 0.00 | 46 | 1010.9 |
| 20260504234104 | 68 | 55 | 0.0 | 0.9 | 0.00 | 0.00 | 0.00 | 45 | 1010.9 |
| 20260504234001 | 69 | 131 | 0.0 | 0.9 | 0.00 | 0.00 | 0.00 | 45 | 1010.9 |
| 20260504233523 | 69 | 41 | 0.0 | 1.7 | 0.00 | 0.00 | 0.00 | 45 | 1010.8 |
| 20260504233104 | 69 | 41 | 0.0 | 2.6 | 0.00 | 0.00 | 0.00 | 44 | 1010.8 |
| 20260504233002 | 69 | 61 | 0.0 | 2.6 | 0.00 | 0.00 | 0.00 | 44 | 1010.8 |
| 20260504232535 | 69 | 166 | 0.0 | 2.6 | 0.00 | 0.00 | 0.00 | 44 | 1010.8 |
| 20260504232025 | 70 | 70 | 0.0 | 5.2 | 0.00 | 0.00 | 0.00 | 44 | 1010.7 |
| 20260504231506 | 70 | 69 | 0.9 | 10.4 | 0.00 | 0.00 | 0.00 | 42 | 1010.8 |
| 20260504231044 | 71 | 74 | 1.7 | 10.4 | 0.00 | 0.00 | 0.00 | 41 | 1010.7 |
| 20260504230523 | 71 | 25 | 0.9 | 9.6 | 0.00 | 0.00 | 0.00 | 41 | 1010.7 |
| 20260504230103 | 71 | 72 | 3.5 | 9.6 | 0.00 | 0.00 | 0.00 | 41 | 1010.7 |
| 20260504230002 | 71 | 28 | 1.7 | 9.6 | 0.00 | 0.00 | 0.00 | 40 | 1010.7 |
| 20260504225542 | 72 | 72 | 0.9 | 6.1 | 0.00 | 0.00 | 0.00 | 40 | 1010.6 |
| 20260504225022 | 72 | 250 | 0.9 | 9.6 | 0.00 | 0.00 | 0.00 | 41 | 1010.6 |
| 20260504224557 | 72 | 38 | 1.7 | 9.6 | 0.00 | 0.00 | 0.00 | 40 | 1010.7 |
| 20260504224042 | 72 | 74 | 0.9 | 12.2 | 0.00 | 0.00 | 0.00 | 41 | 1010.7 |
| 20260504223523 | 73 | 62 | 1.7 | 12.2 | 0.00 | 0.00 | 0.00 | 40 | 1010.6 |
| 20260504223101 | 73 | 66 | 0.9 | 8.7 | 0.00 | 0.00 | 0.00 | 41 | 1010.7 |
| 20260504223002 | 73 | 62 | 2.6 | 8.7 | 0.00 | 0.00 | 0.00 | 40 | 1010.7 |
| 20260504222534 | 74 | 62 | 0.9 | 3.5 | 0.00 | 0.00 | 0.00 | 40 | 1010.8 |
| 20260504222011 | 74 | 59 | 0.0 | 2.6 | 0.00 | 0.00 | 0.00 | 40 | 1010.8 |
| 20260504221547 | 73 | 60 | 0.9 | 7.0 | 0.00 | 0.00 | 0.00 | 40 | 1010.8 |
| 20260504221005 | 73 | 61 | 0.9 | 7.0 | 0.00 | 0.00 | 0.00 | 40 | 1010.8 |
| 20260504220542 | 74 | 65 | 2.6 | 7.0 | 0.00 | 0.00 | 0.00 | 40 | 1010.9 |
| 20260504220040 | 74 | 61 | 0.9 | 7.0 | 0.00 | 0.00 | 0.00 | 40 | 1010.9 |
| 20260504215600 | 74 | 169 | 0.0 | 6.1 | 0.00 | 0.00 | 0.00 | 41 | 1010.8 |
| 20260504215501 | 74 | 84 | 0.0 | 6.1 | 0.00 | 0.00 | 0.00 | 41 | 1010.9 |
| 20260504215044 | 73 | 100 | 0.9 | 12.2 | 0.00 | 0.00 | 0.00 | 40 | 1010.9 |
| 20260504214515 | 74 | 61 | 1.7 | 12.2 | 0.00 | 0.00 | 0.00 | 38 | 1010.9 |
| 20260504214053 | 74 | 255 | 0.9 | 8.7 | 0.00 | 0.00 | 0.00 | 41 | 1010.8 |
| 20260504213535 | 74 | 65 | 0.0 | 7.8 | 0.00 | 0.00 | 0.00 | 40 | 1010.9 |
| 20260504213015 | 74 | 91 | 0.9 | 10.4 | 0.00 | 0.00 | 0.00 | 41 | 1010.9 |
| 20260504212550 | 73 | 73 | 0.9 | 13.0 | 0.00 | 0.00 | 0.00 | 40 | 1010.9 |
| 20260504212011 | 73 | 62 | 2.6 | 13.0 | 0.00 | 0.00 | 0.00 | 40 | 1010.9 |
| 20260504211545 | 73 | 73 | 3.5 | 10.4 | 0.00 | 0.00 | 0.00 | 40 | 1011.0 |
| 20260504211025 | 74 | 61 | 3.5 | 9.6 | 0.00 | 0.00 | 0.00 | 40 | 1010.9 |
| 20260504210549 | 74 | 68 | 0.9 | 9.6 | 0.00 | 0.00 | 0.00 | 40 | 1010.9 |
| 20260504210028 | 74 | 32 | 0.9 | 10.4 | 0.00 | 0.00 | 0.00 | 40 | 1010.9 |
| 20260504205506 | 74 | 69 | 0.9 | 10.4 | 0.00 | 0.00 | 0.00 | 40 | 1011.0 |
| 20260504205043 | 74 | 65 | 2.6 | 8.7 | 0.00 | 0.00 | 0.00 | 41 | 1010.9 |
| 20260504204536 | 74 | 84 | 0.9 | 6.1 | 0.00 | 0.00 | 0.00 | 40 | 1010.9 |
| 20260504204007 | 74 | 34 | 0.9 | 8.7 | 0.00 | 0.00 | 0.00 | 42 | 1010.9 |
| 20260504203539 | 74 | 52 | 0.9 | 9.6 | 0.00 | 0.00 | 0.00 | 41 | 1010.9 |
| 20260504203021 | 74 | 74 | 3.5 | 9.6 | 0.00 | 0.00 | 0.00 | 39 | 1011.0 |
| 20260504202557 | 75 | 27 | 0.9 | 6.1 | 0.00 | 0.00 | 0.00 | 41 | 1011.1 |
| 20260504202034 | 74 | 124 | 0.9 | 6.1 | 0.00 | 0.00 | 0.00 | 41 | 1011.1 |
| 20260504201511 | 73 | 57 | 1.7 | 9.6 | 0.00 | 0.00 | 0.00 | 40 | 1011.1 |
| 20260504201043 | 73 | 135 | 0.9 | 9.6 | 0.00 | 0.00 | 0.00 | 40 | 1011.2 |
| 20260504200521 | 73 | 39 | 2.6 | 11.3 | 0.00 | 0.00 | 0.00 | 40 | 1011.2 |
| 20260504200058 | 73 | 67 | 2.6 | 11.3 | 0.00 | 0.00 | 0.00 | 42 | 1011.3 |
| 20260504195523 | 73 | 56 | 3.5 | 13.9 | 0.00 | 0.00 | 0.00 | 40 | 1011.4 |
| 20260504195058 | 73 | 33 | 5.2 | 13.9 | 0.00 | 0.00 | 0.00 | 40 | 1011.5 |
| 20260504194521 | 74 | 70 | 2.6 | 7.8 | 0.00 | 0.00 | 0.00 | 40 | 1011.6 |
| 20260504194052 | 73 | 45 | 1.7 | 9.6 | 0.00 | 0.00 | 0.00 | 41 | 1011.5 |
| 20260504193528 | 73 | 54 | 0.9 | 10.4 | 0.00 | 0.00 | 0.00 | 42 | 1011.6 |
| 20260504193011 | 72 | 79 | 2.6 | 10.4 | 0.00 | 0.00 | 0.00 | 39 | 1011.7 |
| 20260504192543 | 73 | 60 | 0.0 | 12.2 | 0.00 | 0.00 | 0.00 | 39 | 1011.6 |
| 20260504192022 | 72 | 61 | 0.9 | 13.0 | 0.00 | 0.00 | 0.00 | 40 | 1011.6 |
| 20260504191540 | 72 | 91 | 3.5 | 13.0 | 0.00 | 0.00 | 0.00 | 39 | 1011.7 |
| 20260504191057 | 73 | 56 | 2.6 | 10.4 | 0.00 | 0.00 | 0.00 | 41 | 1011.8 |
| 20260504190533 | 72 | 65 | 0.9 | 7.8 | 0.00 | 0.00 | 0.00 | 41 | 1011.8 |
| 20260504190012 | 72 | 74 | 2.6 | 13.9 | 0.00 | 0.00 | 0.00 | 39 | 1011.8 |
| 20260504185547 | 71 | 97 | 3.5 | 13.9 | 0.00 | 0.00 | 0.00 | 40 | 1011.9 |
| 20260504185009 | 72 | 18 | 3.5 | 13.0 | 0.00 | 0.00 | 0.00 | 40 | 1012.0 |
| 20260504184529 | 72 | 66 | 0.9 | 13.0 | 0.00 | 0.00 | 0.00 | 39 | 1012.0 |
| 20260504184015 | 72 | 68 | 1.7 | 12.2 | 0.00 | 0.00 | 0.00 | 42 | 1012.1 |
| 20260504183539 | 71 | 4 | 0.9 | 12.2 | 0.00 | 0.00 | 0.00 | 40 | 1012.2 |
| 20260504183011 | 71 | 78 | 0.9 | 12.2 | 0.00 | 0.00 | 0.00 | 42 | 1012.3 |
| 20260504182549 | 71 | 25 | 4.3 | 10.4 | 0.00 | 0.00 | 0.00 | 39 | 1012.4 |
| 20260504182013 | 70 | 55 | 4.3 | 11.3 | 0.00 | 0.00 | 0.00 | 39 | 1012.4 |
| 20260504181543 | 70 | 57 | 5.2 | 12.2 | 0.00 | 0.00 | 0.00 | 39 | 1012.5 |
| 20260504181025 | 71 | 64 | 4.3 | 12.2 | 0.00 | 0.00 | 0.00 | 39 | 1012.5 |
| 20260504180504 | 70 | 32 | 2.6 | 13.0 | 0.00 | 0.00 | 0.00 | 40 | 1012.6 |
| 20260504180026 | 70 | 70 | 3.5 | 13.0 | 0.00 | 0.00 | 0.00 | 39 | 1012.7 |
| 20260504175555 | 70 | 61 | 6.1 | 10.4 | 0.00 | 0.00 | 0.00 | 40 | 1012.7 |
| 20260504175035 | 70 | 64 | 1.7 | 16.5 | 0.00 | 0.00 | 0.00 | 40 | 1012.8 |
| 20260504174516 | 70 | 27 | 5.2 | 16.5 | 0.00 | 0.00 | 0.00 | 40 | 1012.9 |
| 20260504174049 | 69 | 8 | 2.6 | 13.0 | 0.00 | 0.00 | 0.00 | 41 | 1013.0 |
| 20260504173533 | 69 | 71 | 6.1 | 13.0 | 0.00 | 0.00 | 0.00 | 40 | 1013.1 |
| 20260504173049 | 69 | 24 | 4.3 | 13.0 | 0.00 | 0.00 | 0.00 | 40 | 1013.0 |
| 20260504172513 | 69 | 95 | 4.3 | 13.0 | 0.00 | 0.00 | 0.00 | 41 | 1013.1 |
| 20260504172051 | 69 | 21 | 3.5 | 13.0 | 0.00 | 0.00 | 0.00 | 40 | 1013.2 |
| 20260504171520 | 69 | 77 | 3.5 | 13.0 | 0.00 | 0.00 | 0.00 | 40 | 1013.2 |
| 20260504171055 | 68 | 13 | 5.2 | 17.4 | 0.00 | 0.00 | 0.00 | 39 | 1013.3 |